Satellite: AO-27
Catalog number: 22825
Epoch time:      06081.77352488
Element set:    0359
Inclination:      098.2801 deg
RA of node:       067.8730 deg
Eccentricity:    0.0008754
Arg of perigee:   151.9816 deg
Mean anomaly:     208.1832 deg
Mean motion:   14.29165281 rev/day
Decay rate:       -2.0e-08 rev/day^2
Epoch rev:           65101
Checksum:              309

Satellite: IO-26
Catalog number: 22826
Epoch time:      06082.80802630
Element set:      49
Inclination:      098.2713 deg
RA of node:       070.0860 deg
Eccentricity:    0.0009093
Arg of perigee:   146.3774 deg
Mean anomaly:     213.7989 deg
Mean motion:   14.29408807 rev/day
Decay rate:        6.0e-08 rev/day^2
Epoch rev:           65123
Checksum:              305

Satellite: PO-28
Catalog number: 22829
Epoch time:      06081.86362203
Element set:    0331
Inclination:      098.2635 deg
RA of node:       070.3937 deg
Eccentricity:    0.0010488
Arg of perigee:   126.4640 deg
Mean anomaly:     233.7512 deg
Mean motion:   14.30098907 rev/day
Decay rate:        5.3e-07 rev/day^2
Epoch rev:           65130
Checksum:              289

Satellite: TO-31
Catalog number: 25396
Epoch time:      06081.71940928
Element set:    0486
Inclination:      098.4882 deg
RA of node:       145.0731 deg
Eccentricity:    0.0003543
Arg of perigee:   091.2855 deg
Mean anomaly:     268.8740 deg
Mean motion:   14.23698933 rev/day
Decay rate:       -1.6e-07 rev/day^2
Epoch rev:           40004
Checksum:              317

Satellite: GO-32
Catalog number: 25397
Epoch time:      06081.70944272
Element set:     972
Inclination:      098.4780 deg
RA of node:       142.0032 deg
Eccentricity:    0.0002125
Arg of perigee:   097.6360 deg
Mean anomaly:     262.5067 deg
Mean motion:   14.23100406 rev/day
Decay rate:       -3.0e-08 rev/day^2
Epoch rev:           39994
Checksum:              287

Satellite: UO-36
Catalog number: 25693
Epoch time:      06081.66676299
Element set:    0997
Inclination:      064.5574 deg
RA of node:       148.4501 deg
Eccentricity:    0.0008335
Arg of perigee:   334.9074 deg
Mean anomaly:     025.1628 deg
Mean motion:   14.78582604 rev/day
Decay rate:        9.0e-08 rev/day^2
Epoch rev:           37299
Checksum:              348

Satellite: MO-46
Catalog number: 26548
Epoch time:      06081.65635473
Element set:     445
Inclination:      064.5568 deg
RA of node:       139.3724 deg
Eccentricity:    0.0051747
Arg of perigee:   259.4694 deg
Mean anomaly:     100.0584 deg
Mean motion:   14.82929786 rev/day
Decay rate:       1.51e-06 rev/day^2
Epoch rev:           29657
Checksum:              348

Satellite: NO-44
Catalog number: 26931
Epoch time:      06081.79877863
Element set:     261
Inclination:      067.0513 deg
RA of node:       230.1917 deg
Eccentricity:    0.0007272
Arg of perigee:   267.1531 deg
Mean anomaly:     092.8755 deg
Mean motion:   14.29428791 rev/day
Decay rate:      -1.45e-06 rev/day^2
Epoch rev:           23358
Checksum:              321

Satellite: SO-50
Catalog number: 27607
Epoch time:      06081.83250689
Element set:     972
Inclination:      064.5602 deg
RA of node:       015.2104 deg
Eccentricity:    0.0053321
Arg of perigee:   175.0760 deg
Mean anomaly:     185.0877 deg
Mean motion:   14.71108900 rev/day
Decay rate:        8.9e-07 rev/day^2
Epoch rev:           17472
Checksum:              293

Satellite: AO-51
Catalog number: 28375
Epoch time:      06081.46026304
Element set:     487
Inclination:      098.1770 deg
RA of node:       137.4102 deg
Eccentricity:    0.0084693
Arg of perigee:   109.4215 deg
Mean anomaly:     251.6149 deg
Mean motion:   14.40508891 rev/day
Decay rate:        2.0e-07 rev/day^2
Epoch rev:            9067
Checksum:              295

Satellite: XO-53
Catalog number: 28894
Epoch time:      06082.61363408
Element set:     460
Inclination:      098.1749 deg
RA of node:       342.2461 deg
Eccentricity:    0.0018742
Arg of perigee:   080.0871 deg
Mean anomaly:     280.2448 deg
Mean motion:   14.59444657 rev/day
Decay rate:        8.4e-07 rev/day^2
Epoch rev:            2149
Checksum:              318

Satellite: CUTESAT
Catalog number: 28941
Epoch time:      06082.15928448
Element set:      34
Inclination:      098.1844 deg
RA of node:       093.2181 deg
Eccentricity:    0.0296038
Arg of perigee:   047.1815 deg
Mean anomaly:     315.3894 deg
Mean motion:   15.20889411 rev/day
Decay rate:     2.6910e-04 rev/day^2
Epoch rev:             445
Checksum:              310

/EX
SB KEPS @ AMSAT  $ORB06082.W
Orbital Elements  06082.WEATHER

HR AMSAT ORBITAL ELEMENTS FOR WEATHER SATELLITES
FROM WA5QGD FORT WORTH,TX March 23, 2006
Send SUBSCRIBE KEPS/UNSUBSCRIBE KEPS to majordomo@amsat.org only
BID: ORB06082.W
TO ALL RADIO AMATEURS BT

Satellite: NOAA-10
Catalog number: 16969
Epoch time:      06081.77829139
Element set:    0138
Inclination:      098.7650 deg
RA of node:       093.2143 deg
Eccentricity:    0.0013095
Arg of perigee:   045.3599 deg
Mean anomaly:     314.8643 deg
Mean motion:   14.27288403 rev/day
Decay rate:        5.9e-07 rev/day^2
Epoch rev:           01483
Checksum:              324

Satellite: NOAA-11
Catalog number: 19531
Epoch time:      06081.79797898
Element set:    0044
Inclination:      098.8265 deg
RA of node:       171.1525 deg
Eccentricity:    0.0011109
Arg of perigee:   232.2479 deg
Mean anomaly:     127.7690 deg
Mean motion:   14.14794314 rev/day
Decay rate:       2.08e-06 rev/day^2
Epoch rev:           90232
Checksum:              315

